Terminal Aerodrome Forecast
Issued by NWS Portland, ME

Home | Current Version | Previous Version | Text Only | Print | Product List | Glossary On
Versions: 1 2 3 4 5 6 7 8 9 10 11 12 13 14 15 16 17 18
000
FTUS41 KGYX 020525
TAFCON
TAF
KCON 020525Z 0206/0306 00000KT P6SM FEW250
     FM020830 00000KT 4SM BR SCT002
      TEMPO 0210/0212 1SM BR BKN002
     FM021400 26007KT P6SM SCT250
     FM030000 00000KT P6SM SCT250=

USA.gov is the U.S. government's official web portal to all federal, state and local government web resources and services.